GW0115 Weather Reports


time (UTC)temp
C
wind
direction
speed
KPH
gust
KPH
rain 1hr
cm
rain 24hr
cm
rain mn
cm
humidity
%
barometer
mb
20260903053057 18 0 0.0 9.7 0.00 0.00 0.00 85 1014.2
20260903051556 18 279 0.0 11.3 0.00 0.00 0.00 84 1014.6
20260903050106 19 0 0.0 19.3 0.00 0.00 0.00 82 1015.1
20260903044600 19 277 1.6 9.7 0.00 0.00 0.00 81 1014.9
20260903043108 19 317 0.0 9.7 0.00 0.00 0.00 79 1014.5
20260903041555 19 282 3.2 16.1 0.00 0.00 0.00 78 1014.3
20260903040110 19 276 1.6 11.3 0.00 0.00 0.00 78 1014.7
20260903034559 19 0 1.6 24.1 0.00 0.00 0.00 78 1014.5
20260903033058 19 0 0.0 12.9 0.00 0.00 0.00 79 1014.6
20260903031555 19 0 0.0 19.3 0.00 0.00 0.00 80 1014.7
20260903030108 19 265 1.6 17.7 0.00 0.00 0.00 79 1015.0
20260903024554 20 268 0.0 16.1 0.00 0.00 0.00 76 1015.4
20260903023107 20 313 3.2 19.3 0.00 0.00 0.00 74 1015.4
20260903021556 20 0 0.0 24.1 0.00 0.00 0.00 74 1015.7
20260903020058 20 255 1.6 16.1 0.00 0.00 0.00 75 1015.9
20260903014602 20 0 0.0 12.9 0.00 0.00 0.00 76 1016.1
20260903013057 20 168 0.0 12.9 0.00 0.00 0.00 77 1016.5
20260903011558 20 0 0.0 9.7 0.00 0.00 0.00 79 1016.8
20260903004603 20 279 0.0 12.9 0.00 0.00 0.00 77 1016.5
20260903003055 20 0 0.0 6.4 0.00 0.00 0.00 78 1016.4
20260903001559 20 0 0.0 3.2 0.00 0.00 0.00 79 1016.3
20260903000105 20 0 0.0 1.6 0.00 0.00 0.00 80 1016.1
20260902234555 20 0 0.0 1.6 0.00 0.00 0.00 83 1015.7
20260902233101 20 0 0.0 8.0 0.00 0.00 0.00 80 1016.2
20260902231600 20 0 0.0 3.2 0.00 0.00 0.00 81 1015.9
20260902230104 20 0 0.0 9.7 0.00 0.00 0.00 81 1016.1
20260902224600 20 0 0.0 4.8 0.00 0.00 0.00 82 1016.7
20260902223116 20 0 0.0 1.6 0.00 0.00 0.00 83 1017.0
20260902221556 20 0 0.0 4.8 0.00 0.00 0.00 81 1018.0
20260902220054 20 0 0.0 0.0 0.00 0.00 0.00 81 1018.2
20260902214556 20 0 0.0 0.0 0.00 0.00 0.00 81 1018.4
20260902213054 20 0 0.0 0.0 0.00 0.00 0.00 80 1018.2
20260902211555 20 0 0.0 0.0 0.00 0.00 0.00 80 1018.0
20260902210058 20 0 0.0 0.0 0.00 0.00 0.00 82 1018.3
20260902204640 20 0 0.0 0.0 0.00 0.00 0.00 82 1018.2
20260902203106 20 0 0.0 0.0 0.00 0.00 0.00 83 1018.0
20260902201600 20 0 0.0 0.0 0.00 0.00 0.00 82 1018.4
20260902200106 20 0 0.0 0.0 0.00 0.00 0.00 83 1018.4
20260902194555 20 0 0.0 0.0 0.00 0.00 0.00 82 1018.5
20260902193059 20 0 0.0 0.0 0.00 0.00 0.00 81 1018.5
20260902191556 20 0 0.0 0.0 0.00 0.00 0.00 80 1018.7
20260902190108 20 0 0.0 1.6 0.00 0.00 0.00 78 1018.9
20260902184602 20 0 0.0 9.7 0.00 0.00 0.00 77 1019.1
20260902183111 20 0 0.0 4.8 0.00 0.00 0.00 77 1019.3
20260902181613 20 0 0.0 8.0 0.00 0.00 0.00 77 1019.0
20260902174601 20 0 0.0 1.6 0.00 0.00 0.00 77 1019.1
20260902173118 20 0 0.0 3.2 0.00 0.00 0.00 77 1019.3
20260902171606 20 0 0.0 1.6 0.00 0.00 0.00 77 1018.9
20260902170058 20 0 0.0 0.0 0.00 0.00 0.00 77 1018.9
20260902164607 20 0 0.0 1.6 0.00 0.00 0.00 77 1019.0
20260902163107 20 0 0.0 9.7 0.00 0.00 0.00 76 1019.3
20260902161615 20 0 0.0 4.8 0.00 0.00 0.00 77 1019.4
20260902160105 20 0 0.0 0.0 0.00 0.00 0.00 78 1019.3
20260902154604 20 0 0.0 6.4 0.00 0.00 0.00 78 1019.6
20260902153108 20 0 0.0 9.7 0.00 0.00 0.00 77 1019.7
20260902151556 20 0 0.0 6.4 0.00 0.00 0.00 78 1020.0
20260902150055 19 0 0.0 12.9 0.00 0.00 0.00 78 1020.1
20260902144551 19 0 0.0 11.3 0.00 0.08 0.00 78 1020.1
20260902143057 19 278 0.0 14.5 0.00 0.08 0.00 79 1020.2
20260902141554 19 0 0.0 9.7 0.00 0.08 0.00 79 1020.0
20260902140057 19 0 0.0 0.0 0.00 0.08 0.00 80 1019.9
20260902134557 19 0 0.0 11.3 0.00 0.13 0.00 80 1019.8
20260902133101 19 0 0.0 0.0 0.00 0.13 0.00 81 1019.8
20260902131553 19 0 0.0 1.6 0.00 0.13 0.00 81 1019.6
20260902130110 19 0 0.0 0.0 0.00 0.13 0.00 82 1019.3
20260902124600 19 0 0.0 0.0 0.00 0.15 0.00 85 1019.2
20260902123107 19 0 0.0 0.0 0.00 0.15 0.00 83 1019.4
20260902121556 19 0 0.0 3.2 0.00 0.15 0.00 84 1019.4
20260902114603 19 0 0.0 0.0 0.00 0.36 0.00 87 1019.2
20260902113058 19 0 0.0 1.6 0.00 0.36 0.00 85 1019.3
20260902111601 19 0 0.0 0.0 0.00 0.36 0.00 86 1019.3
20260902110100 19 0 0.0 4.8 0.00 0.36 0.00 86 1019.5
20260902104610 19 0 0.0 0.0 0.00 0.58 0.00 87 1019.1
20260902103111 19 0 0.0 0.0 0.00 0.58 0.00 88 1019.1
20260902101605 19 0 0.0 0.0 0.00 0.58 0.00 88 1018.9
20260902100055 18 0 0.0 0.0 0.00 0.58 0.00 89 1018.9
20260902094558 18 0 0.0 0.0 0.00 0.89 0.00 89 1018.9
20260902093057 18 0 0.0 0.0 0.00 0.89 0.00 89 1018.5
20260902091554 18 0 0.0 0.0 0.00 0.89 0.00 89 1018.5
20260902090051 18 0 0.0 0.0 0.00 0.89 0.00 90 1018.7
20260902084558 18 0 0.0 0.0 0.00 0.89 0.00 92 1018.9
20260902083100 18 0 0.0 0.0 0.00 0.89 0.00 93 1018.8
20260902081606 18 0 0.0 0.0 0.00 0.89 0.00 95 1018.7
20260902080057 18 0 0.0 0.0 0.00 0.89 0.00 95 1018.6
20260902074604 18 0 0.0 0.0 0.00 0.89 0.00 95 1018.6
20260902073103 17 0 0.0 0.0 0.00 0.89 0.00 95 1018.6
20260902071602 17 0 0.0 0.0 0.00 0.89 0.00 95 1018.7
20260902070100 17 0 0.0 0.0 0.00 0.89 0.00 95 1018.6
20260902064604 18 0 0.0 0.0 0.00 0.89 0.00 95 1018.6
20260902063106 18 0 0.0 0.0 0.00 0.89 0.00 95 1018.7
20260902061621 18 0 0.0 0.0 0.00 0.89 0.00 94 1018.8
20260902060058 17 0 0.0 0.0 0.00 0.89 0.00 95 1018.6
20260902054555 17 0 0.0 0.0 0.00 0.89 0.00 95 1018.6